Flag for Belgium Weather past 2 weeks in Brussels, Belgium

Now
76 °F

Scattered clouds.


Feels Like: 78 °F
Forecast: 60 / 74 °F
Wind: 5 mph from Northeast

Location: Uccle

Current Time: Jul 24, 2014 at 1:29:06 PM

Latest Report: Jul 24, 2014 at 12:00 PM


Visibility: 13 mi

Pressure: 29.98 "Hg

Humidity: 53%

Dew point: 57 °F

Location of BrusselsLocation

Historic Weather in Brussels — Graph

°F

Brussels temperature yesterday

Maximum temperature yesterday: 84 °F (at 6:00 PM)
Minimum temperature yesterday: 66 °F (at 6:00 AM)
Average temperature yesterday: 76 °F

Past Weeks' High & Low Weather Summary

 TemperatureHumidityPressure
High91 °F (Jul 18, 7:00 PM)100% (Jul 10, 12:00 PM)30.19 "Hg (Jul 10, 12:00 PM)
Low55 °F (Jul 15, 5:00 AM)32% (Jul 18, 6:00 PM)29.73 "Hg (Jul 13, 7:00 PM)
Average68 °F76%29.97 "Hg
* Reported Jul 9 3:00 PM — Jul 24 12:00 Noon, Brussels, Weather by CustomWeather, © 2014

Note: Actual official high and low records may vary slightly from our data, if they occured in-between our weather recording intervals... More about our weather records

Advertising

Brussels weather history for previous 24 hours

 ConditionsComfort  
Time TempWeatherWind HumidityBarometerVisibility
12:00 PM
Jul 24
76 °FScattered clouds.5 mph53%29.98 "Hg12 mi
11:00 AM74 °FMild.3 mph58%29.98 "HgN/A
10:00 AM71 °FMild.3 mph63%29.98 "HgN/A
9:00 AM67 °FPassing clouds.3 mph69%29.98 "Hg12 mi
8:00 AM66 °FMild.3 mph71%29.98 "HgN/A
7:00 AM65 °FPassing clouds.3 mph72%29.98 "Hg6 mi
6:00 AM65 °FMild.3 mph70%29.97 "HgN/A
5:00 AM67 °FMild.3 mph66%29.97 "HgN/A
4:00 AM68 °FMild.3 mph64%29.98 "HgN/A
3:00 AM69 °FMild.3 mph61%29.99 "HgN/A
2:00 AM70 °FMild.3 mph59%30.00 "HgN/A
1:00 AM72 °FMild.5 mph57%30.01 "HgN/A
12:00 AM73 °FMild.5 mph55%30.01 "HgN/A
11:00 PM
Jul 23
75 °FMild.3 mph53%30.01 "HgN/A
10:00 PM77 °FWarm.5 mph51%30.00 "HgN/A
9:00 PM80 °FWarm.3 mph49%29.99 "HgN/A
8:00 PM81 °FWarm.3 mph48%29.98 "HgN/A
7:00 PM82 °FWarm.5 mph44%29.98 "HgN/A
6:00 PM84 °FWarm.5 mph44%29.99 "HgN/A
5:00 PM83 °FWarm.5 mph43%29.99 "HgN/A
4:00 PM82 °FWarm.5 mph45%30.01 "HgN/A
3:00 PM82 °FWarm.5 mph47%30.02 "HgN/A
Weather by CustomWeather, © 2014

See weather overviewHow to use our weather pages